Location: Unspecified
(0.0000°N, 0.0000°E)
Time: 03:42:57
(UTC+00:00)

Tiangong 2 - Pass Details

Date: 18 November 2017
Orbit: 386 x 390 km, 42.8° (Epoch: 12 December)

Event Time Altitude Azimuth Distance (km) Brightness Sun altitude
Rises 19:25:57 0° 285° (WNW) 2,252 5.8 -23.6°
Reaches altitude 10° 19:28:44 10° 259° (WSW) 1,401 4.9 -24.3°
Maximum altitude 19:30:30 14° 224° (SW) 1,186 4.3 -24.7°
Drops below altitude 10° 19:32:16 10° 190° (S) 1,403 4.3 -25.1°
Enters shadow 19:32:53 - 182° (S) 1,559 4.4 -25.3°
